Content
SEND FEEDBACK

Daily
Averages
Monthly
Summary
Finland

TORMANEN, FINLAND


Home > Europe > Finland
Elevation: 486 feet     Latitude: 68 37N     Longitude: 027 25E

WEATHER
 
SELECT A DAY
Number of Records: 244,633;   Date Range: 3/27/98 - 9/8/14
 
SHARE

PRINT THIS DATA

[ ← Previous Day ]
WEATHER ALMANAC - JANUARY 23, 2013
[ Next Day → ]
[ °C ]   °F
Weather ElementAverageHighLow
Temperature19.5 °F26.6 °F (3:20 pm)12 °F (2:00 am)
Dewpoint14.5 °F24.8 °F (5:50 pm)6.8 °F (1:50 am)
Humidity80.5 %93 % (2:20 pm)68 % (10:04 am)
Barometer29.35 in29.53 in (11:50 pm)29.18 in (1:50 pm)
Wind Speed15.2 mph26.5 mph (1:50 pm)
Wind Gust40.3 mph (1:50 pm)
Weather ElementAverage
Visibility7.9 mi
Wind DirectionWNW (281.5 °)

Weather ElementTotal
Precipitation---
Heating Degree Days45.7 (Base 65)
Averaged from 53 records on January 23, 2013
WEATHER CONDITIONS BREAKOUT
WIND DIRECTION BREAKOUT
WEATHER BY HOUR - JANUARY 23, 2013
[ °C ]   °F
Local TimeTemperatureDewpointHumidityBarometerVisibilityWind DirectionWind SpeedGust SpeedPrecipitationEventsConditions
12:50 AM14.0 °F8.6 °F79 %29.44 inWest (280°)10.4 mphClear
1:20 AM12.2 °F8.6 °F85 %29.44 inWest (280°)10.4 mphClear
1:50 AM12.2 °F6.8 °F79 %29.44 inWest (280°)9.2 mphClear
2:00 AM12.0 °F7.0 °F71 %29.51 in31.0 miWest (280°)8.9 mphClear
2:20 AM12.2 °F8.6 °F85 %29.44 inWNW (290°)9.2 mphClear
2:50 AM12.2 °F6.8 °F79 %29.44 inWest (270°)8.1 mphClear
3:20 AM12.2 °F6.8 °F79 %29.42 inWest (280°)12.7 mphClear
3:50 AM12.2 °F6.8 °F79 %29.42 inWest (280°)11.5 mphClear
4:20 AM12.2 °F8.6 °F85 %29.42 inWNW (290°)10.4 mphClear
4:50 AM12.2 °F6.8 °F79 %29.42 inWest (280°)11.5 mphClear
5:20 AM14.0 °F8.6 °F79 %29.39 inWest (280°)12.7 mphClear
5:50 AM14.0 °F8.6 °F79 %29.39 inWNW (290°)11.5 mphClear
6:20 AM14.0 °F8.6 °F79 %29.39 inWNW (290°)13.8 mphClear
6:50 AM14.0 °F8.6 °F79 %29.36 inWest (280°)10.4 mphClear
7:20 AM14.0 °F8.6 °F79 %29.36 inWest (280°)15.0 mphClear
7:50 AM15.8 °F10.4 °F79 %29.36 inWest (280°)15.0 mphClear
8:00 AM16.0 °F10.0 °F69 %29.40 in31.0 miWest (280°)13.4 mphClear
8:20 AM17.6 °F10.4 °F73 %29.33 inWNW (290°)15.0 mph26.5 mphClear
8:50 AM17.6 °F10.4 °F73 %29.33 inWNW (290°)17.3 mphClear
9:20 AM17.6 °F10.4 °F73 %29.30 inWest (280°)17.3 mph32.2 mphClear
9:50 AM17.6 °F10.4 °F73 %29.30 in6.2 miWNW (290°)18.4 mph31.1 mphSnowLight Snow Grains
10:04 AM19.4 °F10.4 °F68 %29.30 in6.2 miWest (280°)19.6 mphSnowLow Drifting Snow
10:20 AM19.4 °F12.2 °F74 %29.30 in6.2 miWNW (290°)20.7 mphSnowLow Drifting Snow
10:43 AM19.4 °F12.2 °F74 %29.30 in6.2 miWNW (290°)18.4 mphSnowLight Low Drifting Snow
10:50 AM19.4 °F12.2 °F74 %29.27 in6.2 miWNW (290°)19.6 mphSnowLight Low Drifting Snow
11:20 AM19.4 °F12.2 °F74 %29.27 in6.2 miWNW (290°)20.7 mphSnowLow Drifting Snow
11:50 AM19.4 °F12.2 °F74 %29.27 in6.2 miWNW (300°)17.3 mphSnowLow Drifting Snow
12:20 PM19.4 °F14.0 °F80 %29.24 in6.2 miWNW (290°)17.3 mphSnowLow Drifting Snow
12:50 PM21.2 °F15.8 °F80 %29.21 in6.2 miWNW (290°)19.6 mphMostly Cloudy
1:20 PM21.2 °F15.8 °F80 %29.21 in6.2 miWNW (290°)21.9 mphSnowLight Snow Showers
1:50 PM23.0 °F19.4 °F86 %29.18 inWNW (290°)26.5 mph40.3 mphSnowLight Snow Showers
2:00 PM23.0 °F20.0 °F83 %29.25 in0.0 miWNW (300°)22.4 mphSnowLight Snow Showers
2:20 PM23.0 °F21.2 °F93 %29.21 in1.4 miNW (310°)20.7 mph32.2 mphSnowLight Snow Showers
2:50 PM24.8 °F21.2 °F86 %29.21 in5.6 miNW (310°)18.4 mph29.9 mphSnowLight Snow
3:20 PM26.6 °F21.2 °F80 %29.21 in6.2 miNW (320°)19.6 mph32.2 mphMostly Cloudy
3:50 PM26.6 °F21.2 °F80 %29.21 in6.2 miNW (310°)18.4 mph29.9 mphMostly Cloudy
4:20 PM26.6 °F21.2 °F80 %29.21 inNW (320°)23.0 mph35.7 mphSnowLight Snow Showers
4:50 PM26.6 °F21.2 °F80 %29.21 in6.2 miNNW (330°)24.2 mph38.0 mphSnowLight Snow Showers
5:20 PM26.6 °F23.0 °F86 %29.21 in1.1 miNNW (330°)23.0 mph40.3 mphSnowSnow Showers
5:50 PM26.6 °F24.8 °F93 %29.27 in3.1 miNNW (340°)21.9 mph40.3 mphSnowSnow Showers
6:20 PM26.6 °F23.0 °F86 %29.30 inNorth (360°)20.7 mphSnowSnow Showers
6:50 PM26.6 °F23.0 °F86 %29.33 in6.2 miNorth (360°)18.4 mphSnowSnow Showers
7:20 PM26.6 °F23.0 °F86 %29.36 in6.2 miNorth (360°)15.0 mphSnowLight Snow Showers
7:50 PM24.8 °F23.0 °F93 %29.39 in6.2 miNorth (350°)13.8 mphOvercast
8:00 PM26.0 °F22.0 °F80 %29.43 in31.0 miNorth11.2 mphClear
8:20 PM24.8 °F21.2 °F86 %29.39 in6.2 miNorth (360°)10.4 mphOvercast
8:50 PM24.8 °F21.2 °F86 %29.42 in6.2 miNorth (350°)9.2 mphSnowLight Snow
9:20 PM24.8 °F19.4 °F80 %29.44 in6.2 miNorth (10°)13.8 mphMostly Cloudy
9:50 PM23.0 °F17.6 °F80 %29.44 in6.2 miNorth (10°)13.8 mphMostly Cloudy
10:20 PM21.2 °F17.6 °F86 %29.47 in6.2 miNorth (10°)9.2 mphScattered Clouds
10:50 PM19.4 °F15.8 °F86 %29.50 in6.2 miNorth (360°)5.8 mphPartly Cloudy
11:20 PM19.4 °F15.8 °F86 %29.50 in6.2 miNNW (340°)3.5 mphMostly Cloudy
11:50 PM19.4 °F15.8 °F86 %29.53 in6.2 miNNW (340°)4.6 mphScattered Clouds
Hourly data recorded from EFIV, located miles away from Tormanen, Finland







STORIES FROM OUR PARTNERS